#timestamp,LO_Frequency,Hit,StdDev 
1674054015.9,286047004.3,N
1674054035.7,286047004.1,N
1674054055.6,286047005.8,N
1674054075.4,286047001.7,N
1674054095.2,286047003.7,N
1674054115.1,286047001.9,N
1674054116.0,286047001.9,N
1674054135.8,286047000.3,N
1674054155.7,286047001.1,N
1674054175.5,286047000.2,N
1674054195.3,286047000.3,N
1674054215.2,286047002.0,N
1674054235.0,286047000.2,N
1674054235.9,286047000.2,N
1674054255.7,286047002.6,N
1674054275.6,286047000.5,N
1674054295.4,286047000.6,N
1674054315.3,286047002.8,N
1674054335.1,286047004.4,N
1674054336.0,286047004.4,N
1674054355.8,286047005.2,N
1674054375.7,286047003.6,N
1674054395.5,286046999.8,N
1674054415.4,286047001.5,N
1674054435.2,286047000.6,N
1674054455.0,286046996.6,N
1674054455.9,286046996.6,N
1674054475.8,286046998.6,N
1674054495.6,286047001.2,N
1674054515.4,286047000.5,N
1674054535.3,286047002.4,N
1674054555.1,286047003.7,N
1674054605.9,286047003.3,E
1674054615.8,286047001.9,N
1674054635.6,286046998.1,P
1674054655.5,286046999.2,N
1674054675.3,286046996.7,N
1674054695.2,286046997.7,N
1674054715.9,286046995.5,N
1674054735.7,286046995.3,N
1674054755.6,286046997.1,N
1674054775.4,286046999.0,N
1674054795.2,286047000.6,N
1674054815.1,286046999.7,N
1674054816.0,286046999.7,N
1674054835.8,286046998.4,N
1674054855.7,286046997.1,N
1674054875.5,286046996.1,N
1674054895.3,286046997.6,N
1674054915.2,286046995.3,N
1674054935.0,286046998.5,N
1674054935.9,286046998.5,N
1674054955.8,286046998.3,N
1674054975.6,286046997.2,N
1674054995.4,286046996.7,N
1674055015.3,286046997.9,N
1674055035.1,286046997.2,N
1674055055.8,286046997.6,N
1674055075.1,286046995.0,Y
1674055076.0,286046995.0,P
1674055095.8,286047001.1,N
1674055115.6,286047000.1,N
1674055135.5,286046998.1,N
1674055155.3,286046998.2,N
1674055175.2,286047002.7,N
1674055195.9,286047001.6,N
1674055215.7,286047001.8,N
1674055235.6,286047002.5,N
1674055255.4,286047003.8,N
1674055275.2,286047003.9,N
1674055295.1,286047001.3,N
1674055296.0,286047001.3,N
1674055315.8,286047004.3,N
1674055335.7,286047000.0,N
1674055355.5,286046999.1,N
1674055375.3,286047001.7,N
1674055395.2,286047001.5,N
1674055415.0,286047001.5,N
1674055415.9,286047001.5,N
1674055435.8,286047002.2,N
1674055455.6,286047002.8,N
1674055475.4,286047001.6,N
1674055495.3,286047002.5,N
1674055515.1,286047004.1,N
1674055535.8,286047001.6,N
1674055555.7,286046999.7,N
1674055575.5,286047000.9,N
1674055595.3,286047000.6,N
1674055615.2,286046999.9,N
1674055635.0,286046998.2,N
1674055635.9,286046998.2,N
1674055655.8,286047002.8,N
1674055675.6,286047001.8,N
1674055695.4,286047002.1,N
1674055715.3,286047001.1,N
1674055735.1,286047000.9,N
1674055755.9,286046998.5,N
1674055775.7,286047000.0,N
1674055795.5,286047000.6,N
1674055815.4,286047000.3,N
1674055835.2,286047004.0,N
1674055855.0,286047002.2,N
1674055856.0,286047002.2,N
1674055875.8,286046999.8,N
1674055895.6,286047001.1,N
1674055915.5,286046999.0,N
1674055935.3,286047000.3,N
1674055955.1,286047002.0,N
1674055975.9,286047001.7,N
1674055995.7,286047002.8,N
1674056015.6,286047002.3,N
1674056035.4,286047000.2,N
1674056055.2,286047002.0,N
1674056075.1,286047002.8,N
1674056076.0,286047002.8,N
1674056095.8,286047002.8,N
1674056115.6,286047002.3,N
1674056135.5,286047004.3,N
1674056155.3,286047000.2,N
1674056175.2,286047002.8,N
1674056195.9,286047004.4,N
1674056215.7,286047003.8,N
1674056235.6,286047004.2,N
1674056255.4,286047003.2,N
1674056275.2,286047001.5,N
1674056295.1,286047000.0,N
1674056296.0,286047000.0,N
1674056315.8,286046998.7,N
1674056335.7,286047000.0,N
1674056355.5,286047000.3,N
1674056375.3,286046998.1,N
1674056395.2,286046998.2,N
1674056415.0,286046998.6,N
1674056415.9,286046998.6,N
1674056435.8,286047000.6,N
1674056455.6,286047000.8,N
1674056475.4,286046998.6,N
1674056495.3,286047000.7,N
1674056515.1,286046999.8,N
1674056535.8,286047002.3,N
1674056555.7,286046999.9,N
1674056575.5,286047003.3,N
1674056595.4,286047004.2,N
1674056615.2,286047003.3,N
1674056635.0,286047001.7,N
1674056635.9,286047001.7,N
1674056655.8,286046999.9,N
1674056675.6,286047002.3,N
1674056695.5,286046998.6,N
1674056715.3,286046999.5,N
1674056735.1,286046998.3,N
1674056755.9,286046999.9,N
1674056775.7,286047000.6,N
1674056795.5,286046998.1,N
1674056815.4,286046999.1,N
1674056835.2,286046998.5,N
1674056855.1,286047000.7,N
1674056856.0,286047000.7,N
1674056875.8,286046998.6,N
1674056895.6,286046998.2,N
1674056915.5,286046997.4,N
1674056935.3,286046996.4,N
1674056955.1,286046997.4,N
1674056975.9,286046998.7,N
1674056995.7,286046996.6,N
1674057015.6,286046999.3,N
1674057035.4,286047000.1,N
1674057055.2,286047002.6,N
1674057075.1,286047003.1,N
1674057076.0,286047003.1,N
1674057095.8,286047005.4,N
1674057115.7,286047005.4,N
1674057135.5,286047007.1,N
1674057155.3,286047004.2,N
1674057175.2,286047003.7,N
1674057195.9,286047002.2,N
1674057215.7,286047000.8,N
1674057235.6,286047000.3,N
1674057255.4,286047000.5,N
1674057275.3,286046999.8,N
1674057295.1,286047001.5,N
1674057296.0,286047001.5,N
1674057315.8,286047003.5,N
1674057335.7,286047002.8,N
1674057355.5,286047002.8,N
1674057375.4,286047002.6,N
1674057395.2,286047002.5,N
1674057415.0,286047002.5,N
1674057415.9,286047002.5,N
1674057435.8,286046999.9,N
1674057455.6,286046999.8,N
1674057475.4,286047000.4,N
1674057495.3,286046998.4,N
1674057515.1,286046999.4,N
1674057535.9,286046997.4,N
1674057555.7,286047001.0,N
1674057575.5,286047001.0,N
1674057595.4,286047001.5,N
